Weather History for KBFM - January, 2013

Change the Weather History Date:

Tuesday, January 8, 2013

  Actual Average Record
Temperature  
Mean Temperature 57 °F -  
Max Temperature 66 °F 57 °F 73 °F (2009)
Min Temperature 48 °F 39 °F 21 °F (2015)
Degree Days  
Heating Degree Days 8    
Growing Degree Days 7 (Base 50)    
Moisture  
Dew Point 50 °F    
Average Humidity 80    
Maximum Humidity 97    
Minimum Humidity 67    
Precipitation  
Precipitation 0.00 in - - ()
Sea Level Pressure  
Sea Level Pressure 30.21 in    
Wind  
Wind Speed 5 mph (NE)    
Max Wind Speed 7 mph    
Max Gust Speed -    
Visibility 10 miles    
Events      
Averages and records for this station are not official NWS values.
T = Trace of Precipitation, MM = Missing Value Source: NWS Daily Summary

Daily Weather History Graph

Daily Weather History Graph

Search for Another Location

Airport or City:

Trip Planner

Search our weather history database for the weather conditions in past years. The results will help you decide how hot, cold, wet, or windy it might be!

Date:

Astronomy

Jan. 08, 2013 Rise Set
Actual Time 6:50 AM CST 5:07 PM CST
Civil Twilight 6:24 AM CST 5:34 PM CST
Nautical Twilight 5:54 AM CST 6:03 PM CST
Astronomical Twilight 5:25 AM CST 6:33 PM CST
Moon 3:24 AM CST (1/8) 2:09 PM CST (1/8)
Length of Visible Light 11h 09m
Length of Day
10h 17m
Waning Crescent, 13% of the Moon is Illuminated
Jan 8
Waning Crescent
Jan 11
New
Jan 18
First Quarter
Jan 26
Full
Feb 3
Last Quarter

Hourly Weather History & Observations

Time (CST) Temp. Dew Point Humidity Pressure Visibility Wind Dir Wind Speed Gust Speed Precip Events Conditions
12:53 AM 48.9 °F 42.1 °F 77% 30.22 in 10.0 mi East 4.6 mph - N/A   Mostly Cloudy
1:53 AM 50.0 °F 41.0 °F 71% 30.22 in 10.0 mi ENE 6.9 mph - N/A   Overcast
2:53 AM 50.0 °F 43.0 °F 77% 30.20 in 10.0 mi ENE 4.6 mph - N/A   Overcast
3:53 AM 50.0 °F 44.1 °F 80% 30.19 in 10.0 mi NE 6.9 mph - N/A   Overcast
4:53 AM 48.9 °F 42.1 °F 77% 30.20 in 10.0 mi North 4.6 mph - N/A   Scattered Clouds
5:53 AM 48.9 °F 43.0 °F 80% 30.22 in 10.0 mi NNE 3.5 mph - N/A   Mostly Cloudy
6:23 AM 50.0 °F 42.8 °F 76% 30.22 in 10.0 mi NNE 4.6 mph - N/A   Overcast
6:53 AM 48.9 °F 44.1 °F 83% 30.22 in 10.0 mi NNE 5.8 mph - N/A   Mostly Cloudy
7:53 AM 52.0 °F 45.0 °F 77% 30.25 in 10.0 mi North 3.5 mph - N/A   Mostly Cloudy
8:32 AM 53.6 °F 46.4 °F 77% 30.26 in 10.0 mi NNE 5.8 mph - N/A   Scattered Clouds
8:53 AM 53.1 °F 46.9 °F 80% 30.27 in 10.0 mi North 4.6 mph - N/A   Mostly Cloudy
9:53 AM 55.9 °F 48.0 °F 75% 30.28 in 10.0 mi NNE 6.9 mph - N/A   Mostly Cloudy
10:53 AM 59.0 °F 48.9 °F 69% 30.26 in 10.0 mi NNE 4.6 mph - N/A   Overcast
11:53 AM 63.0 °F 52.0 °F 67% 30.22 in 10.0 mi NE 5.8 mph - N/A   Mostly Cloudy
12:53 PM 64.0 °F 54.0 °F 70% 30.20 in 10.0 mi ENE 4.6 mph - N/A   Scattered Clouds
1:04 PM 64.4 °F 55.4 °F 73% 30.19 in 10.0 mi ENE 3.5 mph - N/A   Mostly Cloudy
1:53 PM 64.9 °F 55.9 °F 73% 30.19 in 10.0 mi Variable 3.5 mph - N/A   Mostly Cloudy
2:53 PM 66.0 °F 57.0 °F 73% 30.19 in 10.0 mi Calm Calm - N/A   Overcast
3:53 PM 64.0 °F 57.0 °F 78% 30.18 in 10.0 mi Calm Calm - N/A   Overcast
4:53 PM 60.1 °F 55.9 °F 86% 30.17 in 10.0 mi Calm Calm - N/A   Scattered Clouds
5:53 PM 55.9 °F 55.0 °F 97% 30.18 in 10.0 mi East 3.5 mph - N/A   Mostly Cloudy
6:53 PM 57.9 °F 55.0 °F 90% 30.19 in 10.0 mi East 4.6 mph - N/A   Overcast
7:53 PM 57.9 °F 55.0 °F 90% 30.17 in 10.0 mi East 5.8 mph - N/A   Overcast
8:30 PM 59.0 °F 55.4 °F 88% 30.18 in 10.0 mi NE 4.6 mph - N/A   Overcast
8:53 PM 57.9 °F 55.9 °F 93% 30.18 in 10.0 mi NE 4.6 mph - N/A   Mostly Cloudy
9:08 PM 57.2 °F 55.4 °F 94% 30.19 in 10.0 mi ENE 4.6 mph - N/A   Scattered Clouds
9:53 PM 59.0 °F 55.0 °F 87% 30.21 in 10.0 mi NE 3.5 mph - N/A   Mostly Cloudy
10:43 PM 60.8 °F 55.4 °F 82% 30.21 in - North - - N/A   Unknown
10:53 PM - - N/A% 30.22 in - North - - N/A   Unknown
11:53 PM - - N/A% 30.21 in - North - - N/A   Unknown